Regional Weather Roundup
Issued by NWS

Home | Current Version | Previous Version | Text Only | Print | Product List | Glossary On
Versions: 1 2 3 4 5 6 7 8 9 10 11 12 13 14 15 16 17 18 19 20 21 22 23 24 25 26 27 28 29 30 31 32 33 34 35 36 37 38 39 40 41 42 43 44 45 46 47 48 49 50
000
ASUS44 KFWD 251515
RWRTX
NORTH TEXAS HOURLY WEATHER ROUNDUP
NATIONAL WEATHER SERVICE FORT WORTH TX
1000 AM CDT MON SEP 25 2017

NOTE: "FAIR" INDICATES FEW OR NO CLOUDS BELOW 12,000 FEET WITH NO
SIGNIFICANT WEATHER AND/OR OBSTRUCTIONS TO VISIBILITY.

TXZ118-119-251600-
DALLAS/FORT WORTH METROPLEX

CITY           SKY/WX    TMP DP  RH WIND       PRES   REMARKS
DFW AIRPORT    PTSUNNY   79  71  76 S10       29.92R
DALLAS LOVE    PTSUNNY   79  70  74 S5        29.93R
FTW MEACHAM    PTSUNNY   80  72  76 S12       29.91R
DAL-EXECUTIVE  MOSUNNY   79  71  76 SE9       29.93R
FTW-ALLIANCE   PTSUNNY   79  71  76 SE9       29.91S
FTW-NAS-JRB    CLOUDY    79  70  74 S9        29.92S
FTW-SPINKS     PTSUNNY   79  70  73 SE9       29.94R
ARLINGTON      MOSUNNY   79  72  79 SE13      29.93R
GRAND PRAIRIE  PTSUNNY   79  70  73 SE6       29.94R
ADDISON        CLOUDY    77  70  78 S7        29.95R
MESQUITE       PTSUNNY   79  72  78 SE7       29.94R
LANCASTER      PTSUNNY   77  70  79 S6        29.94S
$$

TXZ091>094-102>105-117-120-121-131>134-251600-
NORTH CENTRAL TEXAS

CITY           SKY/WX    TMP DP  RH WIND       PRES   REMARKS
SHRMAN/DENISON SUNNY     80  69  69 SE8       29.95S
GAINESVILLE    MOSUNNY   79  69  71 SE12G17   29.94S
BOWIE          CLOUDY    76  70  81 SE6       29.92S
BRIDGEPORT     CLOUDY    79  67  66 S13       29.93R
DECATUR        MOSUNNY   78  69  73 S10G17    29.92R
DENTON         MOSUNNY   78  71  79 S15       29.92R
MCKINNEY       SUNNY     78  72  81 VRB3      29.94R
BONHAM         SUNNY     78  69  73 SE7       29.95S
GREENVILLE     SUNNY     82  72  69 SE6       29.95S
ROCKWALL       SUNNY     79  72  79 S9        29.94R
TERRELL        MOSUNNY   79  71  76 S9        29.94R
WAXAHACHIE     CLOUDY    77  72  85 SE7       29.94S
CLEBURNE       PTSUNNY   77  72  83 S12       29.94S
GRANBURY       MOSUNNY   78  68  70 SE10      29.92S
$$

TXZ083>090-098>101-113>116-127>130-139>142-154-155-251600-
WESTERN NORTH TEXAS

CITY           SKY/WX    TMP DP  RH WIND       PRES   REMARKS
WICHITA FALLS  CLOUDY    76  68  76 SE12      29.89S
WF-KICKAPOO    CLOUDY    76  69  79 SE12      29.91S
VERNON         CLOUDY    74  68  80 SE8       29.90R
ABILENE        CLOUDY    73  69  87 S14       29.90R
ABILENE-DYESS  PTSUNNY   73  69  87 SE13      29.89R
GRAHAM         CLOUDY    80  67  65 SE9G17    29.89R
BRECKENRIDGE   MOSUNNY   77  67  72 S10G16    29.90S
CISCO          MOSUNNY   73  70  88 S9        29.92S
EASTLAND       CLOUDY    76  69  79 S13       29.91S
RANGER         CLOUDY    74  69  83 S9        29.92S
MINERAL WELLS  MOSUNNY   78  69  73 SE12      29.90R
STEPHENVILLE   MOSUNNY   78  67  71 S12G17    29.94S
COMANCHE       PTSUNNY   76  71  84 S12G17    29.92R
COLEMAN        CLOUDY    74  69  83 SE13      29.92R
$$

TXZ143>147-156>162-174-175-251600-
CENTRAL TEXAS

CITY           SKY/WX    TMP DP  RH WIND       PRES   REMARKS
WACO           CLOUDY    78  72  81 SE9       29.91S
WACO-TSTC      PTSUNNY   79  70  73 S6        29.91F
WACO-MCGREGOR  CLOUDY    77  72  84 SE10      29.92S
HILLSBORO      CLOUDY    79  72  79 SE10      29.93S
CORSICANA      PTSUNNY   78  73  84 S8        29.94S
MEXIA          PTSUNNY   78  72  82 SE9       29.93R
CAMERON        CLOUDY    77  73  86 SE3       29.91S
TEMPLE         CLOUDY    76  73  91 SE9       29.92S
KILLEEN        CLOUDY    79  73  83 SE13      29.91R
FORT HOOD      CLOUDY   N/A N/A N/A SE10      29.89R
GATESVILLE     PTSUNNY   77  70  78 SE9       29.94R
HAMILTON       CLOUDY    77  71  83 S12       29.94R
LAMPASAS       PTSUNNY   78  72  82 S8        29.91R
$$

TXZ095>097-106>112-122>126-135>138-148>153-164>167-251600-
EAST TEXAS

CITY           SKY/WX    TMP DP  RH WIND       PRES   REMARKS
PARIS          SUNNY     80  70  71 S6        29.96S
SULPHUR SPRNGS SUNNY     80  70  72 S3        29.97S
MOUNT PLEASANT SUNNY     78  71  80 SE3       29.97R
GILMER         SUNNY     79  71  76 CALM      29.96R
MINEOLA        SUNNY     79  72  78 SE5       29.95S
TYLER          SUNNY     80  72  76 S7        29.94S
LONGVIEW       SUNNY     80  72  76 CALM      29.94S
MARSHALL       SUNNY     77  69  75 S5        29.97F
ATHENS         SUNNY     79  70  73 S9        29.93S
PALESTINE      SUNNY     79  73  82 E7        29.95S
JACKSONVILLE   SUNNY     79  71  78 SE6       29.97S
HENDERSON      SUNNY     79  71  76 S3        29.96F
CENTER         SUNNY     82  75  79 CALM      29.97S
NACOGDOCHES    SUNNY     79  72  79 S6        29.95S
LUFKIN         SUNNY     78  72  81 SE5       29.94R
$$

SUPPLEMENTAL OBSERVATIONS (NWS FORT WORTH AREA)

CITY           SKY/WX    TMP DP  RH WIND       PRES   REMARKS
DENISON DAM      N/A     79  68  69 SE5         N/A
CADDO GRASSLND   N/A     79  68  69 S6          N/A
PAT MAYSE LAKE   N/A     75  72  88 SE6         N/A
GREENVILLE       N/A     82  72  69 S6          N/A
CEDAR HILL       N/A     79  68  69 SE5         N/A
LBJ GRASSLAND    N/A     79  68  69 SE10        N/A
POSSUM KINGDOM   N/A     79  66  65 SE13        N/A
GRANBURY         N/A     79  68  69 SE13        N/A
COMANCHE         N/A     77  68  73 S12         N/A
MCGREGOR         N/A     79  72  78 SE9         N/A
TEMPLE           N/A     75  72  88 SE6         N/A
LAKE LIMESTONE   N/A     81  72  74 SE5         N/A
ATHENS           N/A     81  73  78 SE10        N/A
$$

SUPPLEMENTAL OBSERVATIONS (NWS NORMAN AREA)

CITY           SKY/WX    TMP DP  RH WIND       PRES   REMARKS
GOODLETT       HVY RAIN  70  65  86 S14       29.89S
ODELL            N/A     74  69  86 SE12      29.91R
CROWELL          N/A     74  71  89 SE8       29.91R
KNOX CITY        N/A     75  67  76 SE13      29.90R
SEYMOUR          N/A     74  68  81 SE10      29.90S
MILLERS CREEK    N/A     75  70  83 SE10        N/A
$$

SUPPLEMENTAL OBSERVATIONS (NWS SAN ANGELO AREA)

CITY           SKY/WX    TMP DP  RH WIND       PRES   REMARKS
HASKELL          N/A     75  65  72 S12       29.90R
THROCKMORTON     N/A     76  70  80 S12       29.91S
STAMFORD         N/A     76  69  79 S10       29.91R
CLYDE            N/A     73  69  85 S14       29.93S
HAMBY            N/A     73  66  78 S13         N/A
IVIE RESERVOIR   N/A     73  68  83 E8          N/A
COLORADO BEND    N/A     79  68  69 S10G18      N/A
$$

SUPPLEMENTAL OBSERVATIONS (NWS SHREVEPORT AREA)

CITY           SKY/WX    TMP DP  RH WIND       PRES   REMARKS
CLARKSVILLE      N/A     81  70  69 S3          N/A
TEXARKANA        N/A     82  72  69 SE1         N/A
LINDEN           N/A     82  70  65 S2          N/A
CADDO LAKE       N/A     84  70  61 SE3         N/A
GILMER           N/A     82  72  69 SE2         N/A
HENDERSON        N/A     81  75  83 SE5         N/A
LUFKIN           N/A     81  73  78 MISG        N/A
N SABINE NF      N/A     79  73  83 MISG        N/A
S SABINE NF      N/A     82  73  74 E3          N/A
$$

SUPPLEMENTAL OBSERVATIONS ARE A COLLECTION OF AUTOMATED INSTRUMENTS
THAT ARE MAINTAINED BY A VARIETY OF FEDERAL AND STATE AGENCIES.
CERTAIN ELEMENTS...SUCH AS HUMIDITY VALUES AND SUSTAINED WIND
SPEEDS...MAY BE APPROXIMATED.




USA.gov is the U.S. government's official web portal to all federal, state and local government web resources and services.